Home   Weather   Košice   Past weeks

Flag for Slovakia Past Weather in Košice, Slovakia — Yesterday and Last 2 Weeks

Now
77 °F

Passing clouds.


Feels Like: 79 °F
Forecast: 63 / 90 °F
Wind: 3 mph from Northwest

Location: Kosice - Barca

Current Time: Aug 18, 2017 at 10:06:03 pm

Latest Report: Aug 18, 2017 at 9:00 pm


Visibility: N/A

Pressure: 30.04 "Hg

Humidity: 57%

Dew Point: 61 °F

Location of KošiceLocation

Past Weather in Košice — Graph

°F

Košice Temperature Yesterday

Maximum temperature yesterday: 86 °F (at 2:00 pm)
Minimum temperature yesterday: 57 °F (at 5:30 am)
Average temperature yesterday: 74 °F

High & Low Weather Summary for the Past Weeks

 TemperatureHumidityPressure
High95 °F (Aug 4, 2:00 pm)94% (Aug 6, 2:30 am)30.21 "Hg (Aug 6, 2:30 am)
Low55 °F (Aug 16, 4:00 am)27% (Aug 17, 3:00 pm)29.80 "Hg (Aug 12, 2:00 pm)
Average74 °F64%30.04 "Hg
* Reported Aug 3 8:00 pm — Aug 18 8:30 pm, Košice. Weather by CustomWeather, © 2017

Note: Actual official high and low records may vary slightly from our data, if they occured in-between our weather recording intervals... More about our weather records

Advertising

Košice Weather History for the Previous 24 Hours

Scroll right to see more
 ConditionsComfort  
Time TempWeatherWind HumidityBarometerVisibility
8:30 pm
Fri, Aug 18
77 °FClear.2 mph57%30.04 "Hg10 mi
8:00 pm75 °FClear.5 mph61%30.04 "Hg10 mi
7:30 pm77 °FSunny.6 mph57%30.04 "Hg10 mi
7:00 pm81 °FSunny.8 mph51%30.04 "Hg10 mi
6:30 pm82 °FSunny.7 mph51%30.04 "Hg10 mi
6:00 pm84 °FSunny.7 mph48%30.04 "Hg10 mi
5:30 pm86 °FPassing clouds.6 mph46%30.04 "HgN/A
5:00 pm86 °FSunny.6 mph46%30.04 "Hg10 mi
4:30 pm86 °FPassing clouds.6 mph40%30.04 "HgN/A
4:00 pm86 °FPassing clouds.5 mph43%30.04 "HgN/A
3:30 pm86 °FPassing clouds.7 mph40%30.07 "HgN/A
3:00 pm86 °FPassing clouds.7 mph43%30.07 "HgN/A
2:30 pm84 °FPassing clouds.3 mph45%30.07 "HgN/A
2:00 pm86 °FPassing clouds.6 mph43%30.09 "HgN/A
1:30 pm86 °FPassing clouds.7 mph46%30.09 "HgN/A
1:00 pm84 °FPassing clouds.6 mph45%30.09 "HgN/A
12:30 pm84 °FSunny.5 mph51%30.09 "Hg10 mi
12:00 pm84 °FPassing clouds.7 mph48%30.12 "HgN/A
11:30 am82 °FPassing clouds.6 mph58%30.12 "HgN/A
11:00 am81 °FPassing clouds.3 mph54%30.12 "HgN/A
10:30 am79 °FSunny.1 mph58%30.12 "Hg10 mi
10:09 am79 °FSunny.2 mph58%30.12 "Hg10 mi
9:30 am77 °FSunny.1 mph61%30.12 "Hg10 mi
9:00 am73 °FPassing clouds.3 mph65%30.12 "HgN/A
8:30 am72 °FSunny.3 mph65%30.12 "Hg10 mi
8:00 am70 °FSunny.3 mph73%30.12 "Hg10 mi
7:30 am68 °FSunny.3 mph73%30.09 "Hg10 mi
7:00 am66 °FPassing clouds.3 mph78%30.09 "HgN/A
6:30 am64 °FSunny.5 mph83%30.09 "Hg10 mi
6:15 am68 °FSunny.5 mph73%30.09 "Hg10 mi
6:00 am64 °FSunny.3 mph83%30.09 "Hg10 mi
5:30 am64 °FClear.6 mph83%30.09 "Hg10 mi
5:00 am64 °FClear.8 mph78%30.09 "Hg10 mi
4:30 am66 °FClear.7 mph78%30.07 "Hg10 mi
4:00 am66 °FClear.5 mph73%30.07 "Hg10 mi
3:30 am66 °FClear.2 mph73%30.09 "Hg10 mi
3:00 am66 °FClear.5 mph73%30.09 "Hg10 mi
2:30 am66 °FClear.6 mph73%30.09 "Hg10 mi
2:00 am66 °FClear.3 mph78%30.09 "Hg10 mi
1:30 am68 °FClear.5 mph73%30.09 "Hg10 mi
1:00 am66 °FClear.2 mph78%30.09 "Hg10 mi
12:30 am68 °FClear.1 mph73%30.09 "Hg10 mi
12:00 am72 °FClear.1 mph65%30.09 "Hg10 mi
11:30 pm
Thu, Aug 17
72 °FClear.6 mph65%30.09 "Hg10 mi
11:00 pm70 °FClear.1 mph69%30.09 "Hg10 mi
10:30 pm72 °FPassing clouds.3 mph69%30.09 "HgN/A
10:00 pm73 °FClear.5 mph65%30.09 "Hg10 mi
Weather by CustomWeather, © 2017

See weather overviewHow to use our weather pages